Precipitable_Water
0.21 0.22 0.22 0.22 0.21 0.20 0.20 0.20 0.20 0.20 0.21 0.21 0.20 0.20 0.22 0.21 0.16 0.13 0.16 0.19 0.20 0.23 0.27 0.29 0.28 0.31 0.34 0.34 0.36 0.38 0.39 0.42 0.43 0.42 0.42 0.40 0.40 0.44 0.47 0.50 0.47 0.46 0.45 0.45 0.45 0.44 0.43 0.44 0.43 0.43 0.43 0.45 0.46 0.45 0.44 0.44 0.45 0.43 0.44 0.44 0.45 0.48 0.51 0.53 0.58 0.59 0.61 0.65 0.68 0.71 0.80 0.88 0.91 0.90 0.93 0.97 1.05 1.06 1.04 1.02 1.01 1.01 1.03 1.04 1.06 1.05 1.08
0.21 0.22 0.23 0.24 0.22 0.22 0.21 0.21 0.21 0.21 0.21 0.22 0.22 0.22 0.24 0.23 0.23 0.24 0.23 0.21 0.19 0.22 0.25 0.28 0.28 0.33 0.31 0.32 0.34 0.38 0.39 0.40 0.43 0.42 0.43 0.42 0.42 0.45 0.47 0.49 0.48 0.46 0.44 0.45 0.45 0.43 0.43 0.43 0.44 0.44 0.43 0.44 0.45 0.46 0.46 0.44 0.45 0.45 0.46 0.45 0.44 0.44 0.44 0.46 0.49 0.50 0.53 0.56 0.58 0.62 0.66 0.69 0.73 0.81 0.83 0.84 0.88 0.96 0.99 0.99 0.99 0.99 1.02 1.04 1.01 1.01 1.00
0.21 0.23 0.24 0.24 0.23 0.23 0.21 0.22 0.22 0.22 0.22 0.22 0.23 0.23 0.23 0.23 0.23 0.25 0.26 0.24 0.23 0.27 0.30 0.30 0.30 0.31 0.31 0.33 0.33 0.34 0.35 0.38 0.39 0.39 0.38 0.39 0.41 0.45 0.48 0.48 0.47 0.45 0.45 0.45 0.46 0.46 0.45 0.44 0.44 0.44 0.43 0.44 0.43 0.45 0.46 0.45 0.45 0.45 0.46 0.46 0.45 0.46 0.44 0.47 0.48 0.49 0.50 0.52 0.54 0.51 0.53 0.54 0.58 0.62 0.66 0.70 0.71 0.72 0.75 0.85 0.94 0.98 1.00 0.98 0.99 1.01 0.98
0.21 0.23 0.23 0.22 0.22 0.22 0.20 0.20 0.22 0.22 0.22 0.20 0.22 0.21 0.23 0.23 0.22 0.24 0.24 0.22 0.22 0.26 0.27 0.27 0.28 0.29 0.27 0.28 0.30 0.32 0.32 0.34 0.34 0.35 0.38 0.38 0.40 0.43 0.46 0.47 0.46 0.46 0.45 0.44 0.44 0.43 0.45 0.43 0.44 0.44 0.43 0.42 0.43 0.42 0.43 0.42 0.43 0.45 0.46 0.46 0.46 0.46 0.47 0.46 0.46 0.46 0.48 0.49 0.50 0.50 0.51 0.51 0.51 0.52 0.57 0.62 0.64 0.66 0.67 0.66 0.68 0.77 0.82 0.85 0.86 0.89 0.90
0.19 0.23 0.24 0.23 0.24 0.21 0.18 0.18 0.21 0.22 0.22 0.21 0.23 0.24 0.25 0.25 0.26 0.23 0.20 0.21 0.26 0.25 0.26 0.29 0.29 0.30 0.31 0.30 0.30 0.32 0.34 0.37 0.36 0.39 0.40 0.40 0.40 0.44 0.45 0.47 0.49 0.48 0.44 0.46 0.45 0.42 0.43 0.45 0.41 0.42 0.41 0.42 0.43 0.43 0.43 0.44 0.44 0.43 0.43 0.45 0.46 0.48 0.47 0.44 0.44 0.45 0.46 0.46 0.47 0.48 0.48 0.50 0.51 0.54 0.52 0.52 0.55 0.57 0.60 0.64 0.67 0.66 0.64 0.67 0.74 0.79 0.80
0.20 0.23 0.23 0.23 0.19 0.13 0.13 0.22 0.26 0.25 0.22 0.21 0.21 0.21 0.22 0.23 0.24 0.23 0.24 0.25 0.28 0.31 0.32 0.31 0.30 0.31 0.32 0.32 0.36 0.40 0.41 0.41 0.41 0.44 0.42 0.42 0.44 0.45 0.45 0.46 0.48 0.50 0.48 0.47 0.47 0.46 0.43 0.44 0.43 0.40 0.41 0.40 0.41 0.41 0.40 0.40 0.40 0.40 0.38 0.38 0.41 0.44 0.48 0.50 0.50 0.49 0.46 0.44 0.44 0.44 0.46 0.45 0.46 0.47 0.47 0.47 0.47 0.51 0.53 0.56 0.59 0.59 0.61 0.61 0.64 0.67 0.74
0.19 0.21 0.22 0.17 0.13 0.12 0.19 0.26 0.25 0.28 0.26 0.24 0.23 0.24 0.24 0.25 0.28 0.30 0.29 0.29 0.29 0.30 0.30 0.30 0.32 0.32 0.32 0.37 0.39 0.37 0.36 0.37 0.35 0.36 0.40 0.42 0.42 0.46 0.49 0.49 0.49 0.51 0.51 0.46 0.46 0.44 0.44 0.43 0.41 0.42 0.41 0.42 0.41 0.39 0.39 0.36 0.35 0.34 0.35 0.35 0.36 0.37 0.38 0.40 0.43 0.46 0.47 0.45 0.44 0.43 0.43 0.44 0.44 0.43 0.44 0.46 0.47 0.50 0.51 0.53 0.55 0.56 0.58 0.55 0.59 0.66 0.69
0.19 0.17 0.17 0.12 0.12 0.20 0.23 0.25 0.27 0.29 0.25 0.22 0.21 0.19 0.22 0.25 0.26 0.26 0.24 0.24 0.27 0.30 0.32 0.35 0.36 0.33 0.35 0.35 0.33 0.34 0.37 0.39 0.39 0.38 0.38 0.44 0.45 0.44 0.46 0.47 0.50 0.51 0.49 0.44 0.43 0.44 0.42 0.41 0.42 0.41 0.41 0.42 0.41 0.39 0.39 0.37 0.36 0.36 0.36 0.36 0.36 0.37 0.38 0.38 0.39 0.41 0.42 0.44 0.44 0.45 0.44 0.43 0.43 0.44 0.45 0.46 0.46 0.49 0.49 0.52 0.55 0.57 0.61 0.60 0.61 0.67 0.75
0.17 0.18 0.17 0.16 0.20 0.20 0.21 0.22 0.24 0.23 0.21 0.24 0.23 0.18 0.20 0.26 0.30 0.29 0.27 0.26 0.27 0.29 0.31 0.32 0.35 0.36 0.35 0.31 0.30 0.37 0.40 0.44 0.43 0.41 0.42 0.43 0.44 0.45 0.46 0.47 0.48 0.49 0.49 0.46 0.46 0.45 0.45 0.44 0.42 0.42 0.42 0.42 0.41 0.39 0.38 0.37 0.36 0.36 0.36 0.37 0.38 0.39 0.39 0.41 0.42 0.43 0.43 0.43 0.43 0.43 0.43 0.42 0.42 0.42 0.42 0.44 0.48 0.51 0.50 0.51 0.54 0.57 0.60 0.62 0.65 0.71 0.62
0.20 0.16 0.15 0.16 0.16 0.13 0.16 0.23 0.32 0.33 0.32 0.32 0.32 0.29 0.23 0.30 0.31 0.31 0.30 0.28 0.27 0.28 0.31 0.31 0.32 0.35 0.30 0.27 0.29 0.37 0.43 0.49 0.45 0.44 0.43 0.44 0.44 0.45 0.45 0.46 0.46 0.47 0.48 0.46 0.45 0.44 0.42 0.41 0.42 0.44 0.45 0.43 0.41 0.39 0.37 0.37 0.35 0.35 0.35 0.35 0.36 0.37 0.37 0.39 0.40 0.41 0.43 0.45 0.46 0.46 0.45 0.44 0.45 0.46 0.48 0.48 0.49 0.52 0.51 0.51 0.54 0.54 0.58 0.60 0.67 0.60 0.52
0.20 0.18 0.15 0.14 0.13 0.15 0.25 0.26 0.32 0.34 0.32 0.39 0.31 0.25 0.18 0.28 0.30 0.31 0.30 0.28 0.29 0.30 0.30 0.31 0.33 0.30 0.26 0.27 0.36 0.39 0.39 0.43 0.44 0.43 0.43 0.42 0.42 0.42 0.42 0.41 0.41 0.43 0.44 0.43 0.41 0.41 0.42 0.43 0.45 0.46 0.44 0.42 0.40 0.39 0.39 0.37 0.37 0.36 0.37 0.37 0.38 0.38 0.40 0.41 0.42 0.42 0.43 0.43 0.43 0.44 0.43 0.43 0.43 0.43 0.45 0.48 0.50 0.51 0.52 0.55 0.55 0.61 0.54 0.53 0.50 0.49 0.48
0.19 0.18 0.16 0.14 0.17 0.17 0.27 0.29 0.32 0.35 0.34 0.30 0.27 0.16 0.16 0.30 0.32 0.31 0.31 0.30 0.31 0.31 0.31 0.31 0.29 0.28 0.26 0.31 0.35 0.44 0.44 0.44 0.44 0.42 0.42 0.42 0.42 0.41 0.40 0.40 0.41 0.43 0.41 0.39 0.39 0.41 0.42 0.44 0.45 0.44 0.43 0.42 0.42 0.41 0.41 0.42 0.40 0.39 0.39 0.40 0.41 0.42 0.42 0.43 0.44 0.45 0.47 0.47 0.48 0.47 0.46 0.46 0.46 0.46 0.48 0.50 0.51 0.53 0.56 0.54 0.49 0.49 0.46 0.46 0.47 0.46 0.48
0.17 0.17 0.16 0.16 0.17 0.26 0.28 0.30 0.32 0.34 0.34 0.28 0.17 0.13 0.19 0.30 0.32 0.32 0.32 0.31 0.31 0.32 0.31 0.31 0.27 0.30 0.34 0.37 0.40 0.42 0.44 0.44 0.42 0.42 0.43 0.43 0.41 0.40 0.40 0.41 0.42 0.40 0.40 0.41 0.41 0.41 0.41 0.42 0.44 0.45 0.45 0.44 0.43 0.44 0.43 0.42 0.41 0.42 0.43 0.43 0.43 0.43 0.44 0.44 0.46 0.47 0.48 0.48 0.48 0.50 0.51 0.49 0.49 0.50 0.49 0.50 0.53 0.56 0.56 0.49 0.47 0.48 0.46 0.45 0.44 0.46 0.47
0.16 0.17 0.17 0.16 0.19 0.31 0.33 0.33 0.31 0.32 0.27 0.16 0.15 0.25 0.31 0.33 0.32 0.33 0.32 0.30 0.32 0.33 0.31 0.32 0.32 0.33 0.35 0.38 0.39 0.39 0.41 0.41 0.41 0.41 0.42 0.42 0.41 0.41 0.41 0.41 0.41 0.41 0.41 0.42 0.42 0.42 0.43 0.45 0.47 0.47 0.46 0.44 0.45 0.45 0.43 0.41 0.42 0.44 0.46 0.47 0.47 0.46 0.46 0.44 0.44 0.46 0.47 0.48 0.49 0.49 0.49 0.49 0.47 0.48 0.51 0.54 0.57 0.55 0.52 0.47 0.48 0.47 0.46 0.45 0.44 0.45 0.47
0.18 0.16 0.14 0.14 0.13 0.28 0.33 0.33 0.30 0.31 0.21 0.21 0.27 0.28 0.31 0.33 0.32 0.32 0.32 0.31 0.31 0.32 0.31 0.33 0.34 0.35 0.35 0.35 0.36 0.37 0.39 0.39 0.39 0.40 0.39 0.39 0.39 0.38 0.39 0.39 0.39 0.37 0.37 0.39 0.42 0.44 0.45 0.45 0.46 0.46 0.46 0.44 0.45 0.45 0.44 0.46 0.48 0.48 0.48 0.48 0.47 0.46 0.45 0.46 0.46 0.46 0.46 0.46 0.46 0.47 0.47 0.48 0.49 0.49 0.52 0.57 0.56 0.51 0.48 0.48 0.47 0.45 0.44 0.44 0.44 0.44 0.46
0.16 0.16 0.14 0.15 0.24 0.29 0.32 0.29 0.22 0.27 0.28 0.30 0.30 0.29 0.26 0.29 0.30 0.30 0.29 0.30 0.31 0.32 0.32 0.32 0.32 0.31 0.31 0.32 0.33 0.34 0.35 0.35 0.37 0.37 0.38 0.37 0.37 0.36 0.37 0.38 0.38 0.37 0.36 0.35 0.35 0.36 0.39 0.43 0.44 0.45 0.44 0.42 0.42 0.42 0.42 0.46 0.48 0.49 0.48 0.47 0.48 0.47 0.47 0.47 0.46 0.46 0.46 0.47 0.48 0.48 0.48 0.49 0.51 0.52 0.56 0.54 0.50 0.48 0.49 0.47 0.44 0.43 0.43 0.43 0.42 0.41 0.41
0.20 0.17 0.19 0.27 0.27 0.28 0.28 0.29 0.29 0.29 0.31 0.32 0.32 0.30 0.29 0.28 0.29 0.30 0.29 0.30 0.31 0.31 0.31 0.31 0.30 0.29 0.30 0.32 0.32 0.32 0.32 0.32 0.33 0.33 0.32 0.33 0.34 0.34 0.34 0.34 0.35 0.35 0.34 0.34 0.36 0.36 0.38 0.39 0.40 0.41 0.41 0.41 0.42 0.41 0.44 0.47 0.47 0.46 0.46 0.46 0.46 0.45 0.45 0.45 0.46 0.47 0.47 0.47 0.47 0.48 0.49 0.51 0.52 0.55 0.52 0.49 0.46 0.47 0.47 0.44 0.44 0.43 0.42 0.42 0.41 0.41 0.42
0.22 0.23 0.23 0.24 0.24 0.24 0.25 0.28 0.29 0.28 0.28 0.29 0.28 0.27 0.25 0.25 0.26 0.29 0.28 0.29 0.29 0.29 0.30 0.28 0.28 0.28 0.29 0.30 0.31 0.32 0.33 0.32 0.31 0.32 0.32 0.32 0.33 0.33 0.34 0.34 0.34 0.34 0.34 0.34 0.34 0.34 0.36 0.38 0.39 0.40 0.39 0.39 0.38 0.40 0.44 0.46 0.47 0.46 0.46 0.46 0.45 0.43 0.43 0.43 0.44 0.44 0.43 0.45 0.46 0.48 0.52 0.53 0.53 0.54 0.50 0.47 0.46 0.45 0.44 0.43 0.44 0.44 0.44 0.44 0.42 0.41 0.41
0.16 0.13 0.18 0.19 0.21 0.24 0.24 0.23 0.24 0.25 0.25 0.24 0.25 0.24 0.24 0.26 0.27 0.27 0.28 0.28 0.28 0.28 0.28 0.27 0.26 0.26 0.27 0.26 0.27 0.28 0.29 0.30 0.31 0.32 0.32 0.31 0.31 0.32 0.33 0.34 0.35 0.35 0.34 0.34 0.34 0.34 0.35 0.36 0.38 0.38 0.39 0.40 0.41 0.43 0.45 0.47 0.47 0.47 0.46 0.45 0.44 0.42 0.40 0.40 0.40 0.41 0.41 0.43 0.45 0.47 0.49 0.51 0.53 0.51 0.49 0.48 0.47 0.46 0.45 0.45 0.45 0.45 0.43 0.41 0.40 0.39 0.37
0.16 0.16 0.19 0.21 0.22 0.23 0.24 0.23 0.22 0.22 0.23 0.24 0.26 0.27 0.28 0.28 0.30 0.30 0.30 0.30 0.29 0.29 0.27 0.27 0.26 0.25 0.26 0.25 0.25 0.25 0.26 0.26 0.26 0.26 0.27 0.28 0.28 0.29 0.30 0.31 0.34 0.34 0.34 0.32 0.32 0.33 0.34 0.37 0.39 0.40 0.41 0.41 0.42 0.44 0.47 0.49 0.50 0.49 0.46 0.43 0.41 0.41 0.40 0.41 0.41 0.42 0.44 0.44 0.45 0.47 0.47 0.48 0.48 0.48 0.49 0.50 0.49 0.46 0.44 0.45 0.43 0.41 0.40 0.40 0.38 0.35 0.34
0.18 0.20 0.20 0.21 0.24 0.24 0.23 0.23 0.24 0.25 0.26 0.27 0.27 0.28 0.28 0.27 0.27 0.28 0.28 0.29 0.27 0.27 0.27 0.27 0.26 0.25 0.24 0.25 0.25 0.24 0.25 0.25 0.25 0.26 0.26 0.26 0.27 0.29 0.30 0.30 0.31 0.30 0.31 0.32 0.33 0.34 0.35 0.36 0.38 0.38 0.39 0.41 0.45 0.48 0.51 0.50 0.48 0.44 0.42 0.41 0.41 0.40 0.42 0.42 0.42 0.44 0.46 0.47 0.49 0.49 0.50 0.50 0.49 0.49 0.48 0.46 0.44 0.45 0.49 0.50 0.49 0.46 0.41 0.37 0.36 0.36 0.36
0.17 0.18 0.21 0.24 0.19 0.19 0.21 0.23 0.24 0.25 0.26 0.26 0.25 0.25 0.24 0.24 0.24 0.25 0.25 0.26 0.28 0.29 0.29 0.28 0.27 0.26 0.26 0.26 0.26 0.25 0.25 0.25 0.26 0.26 0.27 0.27 0.28 0.28 0.30 0.32 0.34 0.35 0.36 0.35 0.36 0.37 0.38 0.40 0.42 0.42 0.42 0.43 0.45 0.49 0.51 0.49 0.45 0.42 0.42 0.42 0.41 0.41 0.43 0.43 0.45 0.47 0.49 0.50 0.50 0.51 0.49 0.46 0.46 0.45 0.48 0.51 0.49 0.47 0.46 0.46 0.45 0.44 0.41 0.38 0.38 0.38 0.37
0.18 0.21 0.23 0.23 0.23 0.22 0.22 0.22 0.23 0.24 0.25 0.24 0.23 0.23 0.24 0.25 0.26 0.29 0.30 0.30 0.32 0.32 0.33 0.34 0.32 0.31 0.30 0.29 0.29 0.27 0.27 0.27 0.27 0.28 0.29 0.31 0.32 0.33 0.36 0.37 0.37 0.38 0.39 0.40 0.39 0.38 0.38 0.39 0.39 0.41 0.41 0.40 0.47 0.52 0.50 0.46 0.45 0.44 0.44 0.43 0.42 0.43 0.44 0.45 0.48 0.50 0.51 0.50 0.51 0.49 0.46 0.46 0.46 0.48 0.48 0.49 0.47 0.45 0.44 0.43 0.42 0.40 0.38 0.38 0.38 0.38 0.37
0.22 0.23 0.22 0.22 0.22 0.20 0.22 0.24 0.26 0.26 0.27 0.27 0.25 0.26 0.27 0.29 0.30 0.31 0.30 0.31 0.32 0.31 0.31 0.33 0.34 0.33 0.30 0.31 0.33 0.33 0.33 0.32 0.31 0.30 0.32 0.34 0.35 0.36 0.38 0.38 0.37 0.36 0.35 0.34 0.34 0.35 0.37 0.38 0.40 0.42 0.41 0.46 0.51 0.49 0.49 0.47 0.47 0.46 0.45 0.44 0.43 0.44 0.47 0.49 0.50 0.51 0.50 0.48 0.47 0.47 0.47 0.49 0.49 0.48 0.46 0.44 0.44 0.46 0.46 0.44 0.43 0.41 0.39 0.39 0.38 0.39 0.42
0.22 0.25 0.25 0.26 0.25 0.24 0.26 0.25 0.26 0.27 0.28 0.29 0.27 0.28 0.30 0.31 0.32 0.34 0.33 0.33 0.35 0.35 0.34 0.33 0.34 0.36 0.34 0.32 0.31 0.29 0.29 0.30 0.32 0.33 0.34 0.34 0.34 0.33 0.32 0.32 0.33 0.34 0.35 0.37 0.38 0.39 0.40 0.42 0.44 0.44 0.44 0.49 0.50 0.49 0.48 0.49 0.49 0.47 0.46 0.45 0.45 0.46 0.49 0.50 0.51 0.51 0.49 0.48 0.48 0.49 0.48 0.46 0.46 0.47 0.46 0.45 0.44 0.43 0.44 0.44 0.42 0.41 0.42 0.45 0.46 0.46 0.45
0.27 0.25 0.25 0.24 0.23 0.23 0.25 0.26 0.27 0.29 0.31 0.32 0.31 0.31 0.33 0.34 0.35 0.36 0.35 0.35 0.35 0.36 0.36 0.35 0.34 0.34 0.35 0.33 0.32 0.33 0.32 0.32 0.31 0.34 0.35 0.34 0.35 0.36 0.37 0.38 0.38 0.39 0.40 0.41 0.42 0.43 0.44 0.44 0.44 0.44 0.46 0.49 0.50 0.49 0.50 0.50 0.49 0.48 0.48 0.48 0.49 0.50 0.51 0.52 0.52 0.52 0.51 0.50 0.49 0.48 0.48 0.47 0.47 0.46 0.45 0.44 0.42 0.41 0.40 0.40 0.42 0.43 0.44 0.44 0.44 0.43 0.43
0.24 0.25 0.25 0.23 0.21 0.23 0.28 0.27 0.27 0.31 0.33 0.34 0.34 0.35 0.36 0.37 0.36 0.35 0.35 0.35 0.35 0.35 0.34 0.34 0.33 0.33 0.34 0.36 0.35 0.36 0.35 0.36 0.37 0.37 0.37 0.36 0.37 0.38 0.40 0.41 0.41 0.42 0.41 0.41 0.42 0.44 0.44 0.44 0.45 0.46 0.48 0.50 0.52 0.52 0.52 0.52 0.51 0.50 0.52 0.53 0.53 0.54 0.54 0.54 0.53 0.51 0.50 0.49 0.48 0.47 0.46 0.45 0.43 0.42 0.42 0.42 0.41 0.40 0.39 0.39 0.39 0.38 0.38 0.39 0.40 0.40 0.39
0.25 0.27 0.27 0.23 0.22 0.25 0.28 0.32 0.33 0.34 0.35 0.36 0.37 0.36 0.36 0.36 0.35 0.34 0.34 0.34 0.34 0.35 0.35 0.36 0.36 0.37 0.37 0.39 0.40 0.40 0.42 0.39 0.37 0.39 0.39 0.39 0.42 0.43 0.42 0.41 0.41 0.41 0.42 0.42 0.42 0.43 0.43 0.42 0.42 0.43 0.47 0.50 0.53 0.53 0.54 0.54 0.53 0.54 0.54 0.54 0.53 0.54 0.53 0.53 0.51 0.48 0.47 0.47 0.47 0.46 0.45 0.44 0.44 0.43 0.43 0.42 0.41 0.41 0.41 0.41 0.39 0.39 0.38 0.38 0.37 0.38 0.38
0.28 0.29 0.31 0.31 0.31 0.32 0.34 0.36 0.35 0.35 0.36 0.37 0.37 0.37 0.36 0.35 0.35 0.35 0.35 0.36 0.38 0.39 0.38 0.40 0.42 0.42 0.40 0.39 0.39 0.38 0.37 0.37 0.36 0.36 0.37 0.39 0.39 0.40 0.42 0.42 0.42 0.42 0.41 0.41 0.41 0.42 0.41 0.41 0.41 0.42 0.48 0.51 0.53 0.55 0.56 0.56 0.56 0.57 0.55 0.55 0.54 0.54 0.54 0.53 0.52 0.50 0.49 0.49 0.48 0.47 0.46 0.46 0.46 0.45 0.44 0.44 0.43 0.42 0.41 0.40 0.40 0.40 0.40 0.39 0.38 0.36 0.34
0.30 0.32 0.32 0.32 0.34 0.35 0.35 0.34 0.35 0.36 0.35 0.36 0.36 0.36 0.36 0.36 0.35 0.36 0.38 0.39 0.40 0.38 0.40 0.41 0.41 0.40 0.41 0.40 0.41 0.41 0.39 0.39 0.39 0.39 0.40 0.40 0.42 0.43 0.43 0.44 0.43 0.42 0.42 0.41 0.40 0.41 0.41 0.42 0.42 0.44 0.49 0.53 0.54 0.57 0.57 0.59 0.60 0.59 0.58 0.56 0.56 0.55 0.55 0.55 0.54 0.52 0.50 0.50 0.51 0.50 0.48 0.47 0.47 0.46 0.46 0.46 0.45 0.45 0.44 0.43 0.41 0.41 0.39 0.37 0.35 0.32 0.30
0.32 0.33 0.35 0.36 0.36 0.36 0.36 0.35 0.35 0.35 0.36 0.37 0.38 0.37 0.37 0.38 0.37 0.38 0.38 0.39 0.39 0.39 0.40 0.40 0.40 0.40 0.40 0.41 0.43 0.44 0.45 0.44 0.44 0.43 0.42 0.42 0.42 0.43 0.44 0.43 0.40 0.39 0.40 0.41 0.43 0.44 0.44 0.44 0.46 0.50 0.53 0.55 0.57 0.60 0.60 0.61 0.60 0.60 0.58 0.57 0.57 0.57 0.57 0.56 0.55 0.55 0.54 0.53 0.50 0.49 0.48 0.47 0.45 0.44 0.43 0.42 0.41 0.41 0.40 0.39 0.37 0.36 0.36 0.36 0.34 0.33 0.35
0.32 0.32 0.33 0.35 0.35 0.35 0.34 0.35 0.34 0.34 0.36 0.37 0.36 0.36 0.37 0.36 0.35 0.36 0.38 0.38 0.39 0.40 0.40 0.40 0.40 0.40 0.41 0.42 0.43 0.44 0.44 0.44 0.44 0.44 0.44 0.44 0.44 0.44 0.44 0.44 0.44 0.43 0.42 0.44 0.45 0.47 0.48 0.50 0.52 0.54 0.57 0.59 0.61 0.62 0.62 0.61 0.60 0.59 0.57 0.58 0.58 0.57 0.56 0.55 0.55 0.53 0.52 0.51 0.49 0.48 0.45 0.43 0.43 0.42 0.41 0.40 0.40 0.39 0.38 0.37 0.35 0.35 0.35 0.35 0.34 0.33 0.33
0.31 0.30 0.30 0.32 0.33 0.33 0.33 0.33 0.33 0.34 0.36 0.36 0.37 0.38 0.39 0.39 0.39 0.39 0.39 0.40 0.40 0.40 0.40 0.39 0.40 0.41 0.41 0.42 0.42 0.42 0.42 0.43 0.43 0.43 0.43 0.43 0.44 0.45 0.46 0.46 0.46 0.46 0.46 0.46 0.48 0.51 0.52 0.53 0.55 0.59 0.61 0.62 0.63 0.63 0.63 0.61 0.60 0.59 0.60 0.60 0.59 0.59 0.57 0.54 0.53 0.51 0.50 0.48 0.46 0.46 0.44 0.43 0.43 0.42 0.40 0.41 0.42 0.41 0.40 0.39 0.37 0.35 0.35 0.36 0.36 0.36 0.33
0.33 0.32 0.33 0.35 0.35 0.33 0.32 0.33 0.36 0.36 0.38 0.39 0.39 0.39 0.38 0.39 0.40 0.40 0.40 0.40 0.40 0.40 0.40 0.40 0.41 0.42 0.42 0.42 0.41 0.41 0.41 0.40 0.39 0.39 0.40 0.42 0.43 0.45 0.46 0.47 0.47 0.47 0.48 0.50 0.52 0.53 0.56 0.59 0.60 0.61 0.62 0.63 0.63 0.63 0.63 0.62 0.62 0.61 0.61 0.60 0.58 0.56 0.56 0.55 0.54 0.52 0.49 0.46 0.44 0.43 0.43 0.42 0.43 0.44 0.43 0.41 0.41 0.40 0.39 0.38 0.37 0.37 0.36 0.37 0.37 0.35 0.33
0.39 0.39 0.39 0.38 0.38 0.38 0.38 0.37 0.37 0.38 0.38 0.37 0.38 0.39 0.39 0.40 0.40 0.39 0.40 0.40 0.40 0.41 0.42 0.42 0.42 0.42 0.41 0.41 0.40 0.40 0.39 0.38 0.39 0.39 0.40 0.42 0.43 0.45 0.46 0.46 0.46 0.48 0.49 0.50 0.52 0.53 0.57 0.59 0.61 0.62 0.63 0.63 0.63 0.63 0.63 0.62 0.62 0.62 0.61 0.59 0.57 0.55 0.54 0.54 0.54 0.53 0.51 0.48 0.46 0.45 0.44 0.45 0.44 0.43 0.42 0.41 0.40 0.38 0.38 0.38 0.37 0.37 0.36 0.35 0.34 0.33 0.32
0.39 0.37 0.37 0.38 0.38 0.39 0.39 0.39 0.39 0.39 0.39 0.39 0.39 0.39 0.39 0.40 0.39 0.39 0.39 0.40 0.42 0.43 0.42 0.42 0.42 0.42 0.41 0.40 0.39 0.39 0.39 0.39 0.40 0.40 0.41 0.42 0.43 0.45 0.45 0.44 0.45 0.46 0.46 0.47 0.51 0.54 0.57 0.58 0.59 0.60 0.61 0.61 0.61 0.61 0.62 0.62 0.62 0.60 0.59 0.57 0.56 0.55 0.54 0.53 0.53 0.51 0.50 0.48 0.47 0.45 0.44 0.43 0.43 0.42 0.41 0.40 0.40 0.39 0.38 0.37 0.37 0.36 0.35 0.34 0.33 0.31 0.29
0.40 0.39 0.38 0.39 0.40 0.40 0.40 0.40 0.41 0.40 0.40 0.39 0.39 0.38 0.38 0.38 0.38 0.39 0.40 0.40 0.41 0.41 0.42 0.42 0.41 0.40 0.40 0.40 0.40 0.40 0.41 0.41 0.41 0.41 0.41 0.43 0.44 0.44 0.43 0.43 0.44 0.44 0.45 0.45 0.48 0.53 0.55 0.57 0.59 0.60 0.60 0.59 0.59 0.60 0.60 0.60 0.60 0.59 0.58 0.57 0.56 0.55 0.55 0.53 0.51 0.50 0.49 0.48 0.46 0.44 0.43 0.42 0.41 0.40 0.39 0.38 0.38 0.38 0.38 0.37 0.36 0.36 0.34 0.33 0.30 0.27 0.27
0.40 0.41 0.41 0.41 0.40 0.40 0.41 0.42 0.42 0.41 0.40 0.38 0.38 0.38 0.38 0.38 0.39 0.39 0.39 0.39 0.40 0.41 0.41 0.41 0.41 0.41 0.41 0.41 0.41 0.41 0.41 0.42 0.42 0.42 0.42 0.43 0.43 0.43 0.43 0.43 0.43 0.45 0.44 0.45 0.50 0.53 0.55 0.58 0.59 0.58 0.58 0.58 0.58 0.57 0.58 0.58 0.58 0.59 0.58 0.57 0.57 0.57 0.56 0.55 0.52 0.50 0.48 0.47 0.46 0.45 0.43 0.41 0.39 0.38 0.38 0.38 0.38 0.38 0.38 0.37 0.36 0.35 0.32 0.28 0.27 0.26 0.27
0.38 0.40 0.41 0.41 0.42 0.41 0.40 0.40 0.40 0.39 0.38 0.37 0.37 0.38 0.39 0.39 0.38 0.37 0.36 0.36 0.37 0.38 0.38 0.38 0.39 0.39 0.39 0.39 0.39 0.40 0.41 0.42 0.42 0.43 0.43 0.43 0.44 0.43 0.43 0.44 0.45 0.46 0.47 0.51 0.53 0.54 0.57 0.57 0.58 0.57 0.57 0.57 0.57 0.57 0.57 0.58 0.58 0.58 0.57 0.57 0.58 0.57 0.56 0.55 0.54 0.53 0.51 0.49 0.46 0.43 0.41 0.39 0.38 0.39 0.39 0.39 0.39 0.38 0.37 0.36 0.35 0.31 0.27 0.26 0.26 0.26 0.27
0.37 0.38 0.38 0.39 0.38 0.38 0.38 0.38 0.39 0.39 0.40 0.40 0.39 0.38 0.38 0.37 0.35 0.33 0.32 0.31 0.31 0.32 0.32 0.32 0.31 0.31 0.32 0.33 0.35 0.37 0.40 0.42 0.43 0.43 0.43 0.44 0.44 0.43 0.44 0.45 0.47 0.49 0.51 0.52 0.54 0.55 0.56 0.57 0.57 0.57 0.57 0.58 0.58 0.58 0.58 0.58 0.58 0.58 0.58 0.58 0.57 0.57 0.56 0.55 0.54 0.51 0.49 0.46 0.43 0.42 0.41 0.41 0.41 0.40 0.40 0.39 0.38 0.37 0.36 0.33 0.29 0.27 0.26 0.26 0.26 0.27 0.27
0.37 0.37 0.37 0.38 0.38 0.39 0.38 0.38 0.38 0.40 0.41 0.41 0.41 0.40 0.38 0.35 0.32 0.28 0.26 0.25 0.25 0.25 0.26 0.27 0.26 0.26 0.26 0.27 0.28 0.29 0.31 0.34 0.37 0.40 0.41 0.42 0.42 0.42 0.41 0.41 0.46 0.49 0.51 0.52 0.52 0.53 0.54 0.55 0.55 0.55 0.56 0.57 0.58 0.58 0.58 0.59 0.59 0.58 0.57 0.56 0.55 0.55 0.54 0.53 0.51 0.49 0.48 0.47 0.46 0.45 0.44 0.43 0.42 0.40 0.39 0.38 0.37 0.35 0.32 0.28 0.27 0.26 0.27 0.26 0.27 0.27 0.28
0.36 0.37 0.37 0.38 0.38 0.39 0.39 0.39 0.40 0.39 0.40 0.40 0.39 0.36 0.33 0.30 0.28 0.25 0.24 0.23 0.22 0.22 0.22 0.22 0.22 0.23 0.24 0.25 0.26 0.27 0.27 0.27 0.27 0.28 0.30 0.32 0.34 0.36 0.37 0.39 0.44 0.45 0.47 0.48 0.49 0.50 0.51 0.52 0.52 0.52 0.52 0.53 0.54 0.55 0.56 0.57 0.57 0.57 0.55 0.54 0.53 0.52 0.51 0.50 0.50 0.49 0.49 0.48 0.47 0.46 0.45 0.43 0.41 0.39 0.38 0.36 0.33 0.30 0.28 0.27 0.27 0.28 0.28 0.28 0.28 0.28 0.28
0.36 0.36 0.37 0.38 0.39 0.39 0.38 0.37 0.35 0.34 0.32 0.32 0.31 0.29 0.29 0.27 0.26 0.24 0.23 0.22 0.21 0.21 0.22 0.22 0.22 0.22 0.22 0.22 0.22 0.22 0.22 0.23 0.23 0.23 0.23 0.25 0.27 0.29 0.29 0.30 0.33 0.34 0.35 0.36 0.38 0.39 0.42 0.44 0.45 0.46 0.48 0.48 0.49 0.49 0.50 0.50 0.50 0.51 0.54 0.54 0.53 0.52 0.51 0.50 0.49 0.48 0.48 0.46 0.44 0.43 0.41 0.39 0.37 0.34 0.31 0.29 0.28 0.28 0.29 0.28 0.28 0.28 0.29 0.29 0.29 0.29 0.29
0.37 0.38 0.38 0.38 0.38 0.38 0.35 0.31 0.29 0.27 0.25 0.25 0.26 0.25 0.24 0.23 0.22 0.22 0.21 0.20 0.20 0.20 0.20 0.20 0.21 0.20 0.20 0.19 0.19 0.18 0.18 0.19 0.19 0.20 0.19 0.19 0.20 0.22 0.24 0.24 0.25 0.26 0.26 0.26 0.26 0.27 0.28 0.29 0.30 0.31 0.33 0.34 0.36 0.38 0.39 0.40 0.41 0.41 0.42 0.43 0.45 0.47 0.46 0.45 0.43 0.42 0.40 0.38 0.34 0.31 0.29 0.28 0.28 0.28 0.28 0.28 0.28 0.29 0.29 0.29 0.29 0.29 0.29 0.29 0.29 0.29 0.29
0.37 0.38 0.38 0.38 0.38 0.37 0.33 0.29 0.27 0.25 0.24 0.24 0.23 0.22 0.21 0.20 0.19 0.19 0.19 0.18 0.18 0.18 0.19 0.19 0.20 0.21 0.21 0.20 0.18 0.18 0.18 0.18 0.17 0.17 0.16 0.16 0.16 0.17 0.20 0.21 0.21 0.21 0.21 0.22 0.22 0.22 0.23 0.24 0.25 0.26 0.27 0.27 0.28 0.28 0.29 0.29 0.29 0.30 0.31 0.31 0.32 0.32 0.32 0.32 0.31 0.31 0.30 0.30 0.29 0.29 0.29 0.29 0.29 0.29 0.28 0.28 0.28 0.28 0.28 0.28 0.28 0.29 0.29 0.28 0.28 0.28 0.29
0.37 0.38 0.38 0.37 0.35 0.34 0.33 0.29 0.26 0.24 0.23 0.22 0.21 0.20 0.20 0.19 0.18 0.18 0.18 0.18 0.18 0.18 0.18 0.18 0.17 0.18 0.20 0.21 0.21 0.20 0.18 0.18 0.18 0.17 0.16 0.16 0.15 0.17 0.19 0.19 0.18 0.18 0.18 0.19 0.19 0.20 0.20 0.21 0.21 0.22 0.23 0.24 0.24 0.25 0.25 0.26 0.26 0.27 0.27 0.27 0.28 0.28 0.29 0.30 0.31 0.31 0.31 0.30 0.30 0.30 0.29 0.29 0.29 0.29 0.29 0.28 0.28 0.28 0.28 0.29 0.29 0.29 0.29 0.29 0.29 0.29 0.30
0.37 0.37 0.37 0.37 0.38 0.38 0.34 0.30 0.28 0.25 0.23 0.22 0.20 0.19 0.20 0.21 0.21 0.20 0.20 0.20 0.20 0.20 0.19 0.18 0.17 0.17 0.18 0.18 0.20 0.20 0.19 0.17 0.16 0.17 0.16 0.16 0.16 0.17 0.17 0.18 0.19 0.18 0.16 0.17 0.17 0.18 0.19 0.19 0.20 0.20 0.20 0.21 0.21 0.22 0.22 0.22 0.23 0.23 0.23 0.24 0.25 0.26 0.26 0.27 0.27 0.27 0.28 0.29 0.30 0.30 0.30 0.30 0.30 0.30 0.29 0.29 0.29 0.29 0.29 0.29 0.29 0.29 0.29 0.30 0.30 0.31 0.31
0.38 0.37 0.37 0.37 0.38 0.38 0.35 0.29 0.25 0.24 0.24 0.22 0.20 0.20 0.20 0.21 0.21 0.21 0.21 0.21 0.20 0.19 0.19 0.18 0.17 0.17 0.17 0.17 0.17 0.18 0.19 0.18 0.16 0.15 0.18 0.17 0.15 0.14 0.15 0.16 0.17 0.18 0.18 0.16 0.16 0.17 0.17 0.18 0.18 0.19 0.19 0.20 0.20 0.20 0.20 0.20 0.21 0.20 0.20 0.20 0.21 0.22 0.22 0.23 0.24 0.24 0.25 0.26 0.26 0.26 0.27 0.28 0.28 0.29 0.29 0.29 0.28 0.29 0.29 0.28 0.28 0.29 0.29 0.30 0.30 0.31 0.32
0.41 0.39 0.39 0.38 0.38 0.38 0.37 0.31 0.27 0.23 0.22 0.20 0.20 0.20 0.19 0.20 0.19 0.19 0.19 0.20 0.20 0.19 0.18 0.18 0.18 0.17 0.16 0.15 0.15 0.15 0.15 0.16 0.15 0.14 0.15 0.15 0.15 0.14 0.15 0.15 0.15 0.15 0.16 0.16 0.15 0.15 0.15 0.16 0.16 0.17 0.18 0.19 0.19 0.20 0.20 0.20 0.20 0.20 0.20 0.20 0.20 0.20 0.20 0.21 0.21 0.22 0.21 0.21 0.21 0.22 0.23 0.24 0.24 0.25 0.26 0.26 0.27 0.27 0.28 0.28 0.28 0.28 0.28 0.29 0.28 0.28 0.28
0.42 0.41 0.40 0.38 0.38 0.37 0.36 0.33 0.27 0.24 0.22 0.20 0.21 0.20 0.20 0.22 0.21 0.18 0.18 0.18 0.17 0.17 0.17 0.17 0.16 0.15 0.16 0.15 0.15 0.14 0.15 0.16 0.16 0.15 0.15 0.15 0.15 0.14 0.14 0.13 0.14 0.14 0.14 0.14 0.15 0.15 0.15 0.16 0.16 0.16 0.16 0.17 0.17 0.18 0.18 0.19 0.19 0.19 0.20 0.20 0.20 0.20 0.20 0.20 0.20 0.20 0.21 0.21 0.21 0.20 0.20 0.20 0.20 0.19 0.20 0.21 0.21 0.21 0.22 0.22 0.23 0.23 0.24 0.24 0.23 0.23 0.23
0.41 0.40 0.40 0.41 0.40 0.39 0.40 0.36 0.32 0.26 0.23 0.22 0.22 0.22 0.21 0.23 0.20 0.17 0.19 0.18 0.19 0.17 0.16 0.15 0.16 0.16 0.16 0.16 0.16 0.16 0.16 0.14 0.13 0.15 0.15 0.13 0.13 0.12 0.14 0.13 0.13 0.13 0.14 0.14 0.14 0.14 0.14 0.14 0.15 0.16 0.17 0.17 0.16 0.16 0.17 0.17 0.18 0.18 0.18 0.18 0.19 0.20 0.20 0.21 0.21 0.21 0.21 0.21 0.21 0.21 0.21 0.20 0.20 0.19 0.19 0.19 0.19 0.19 0.19 0.19 0.20 0.20 0.20 0.20 0.21 0.21 0.21
0.40 0.42 0.43 0.43 0.42 0.41 0.40 0.38 0.34 0.29 0.26 0.25 0.23 0.20 0.22 0.21 0.17 0.18 0.16 0.15 0.20 0.19 0.17 0.16 0.14 0.15 0.15 0.14 0.12 0.11 0.12 0.14 0.14 0.15 0.16 0.16 0.17 0.16 0.14 0.14 0.14 0.13 0.13 0.13 0.13 0.13 0.13 0.14 0.14 0.14 0.15 0.16 0.16 0.16 0.16 0.16 0.16 0.16 0.17 0.17 0.17 0.18 0.18 0.19 0.19 0.19 0.19 0.20 0.21 0.21 0.21 0.20 0.20 0.19 0.19 0.19 0.18 0.18 0.17 0.17 0.18 0.18 0.19 0.19 0.19 0.19 0.19
Wind_Speed
27 26 27 27 27 27 27 27 27 27 27 27 26 26 25 24 25 26 25 24 24 23 21 19 18 18 19 20 21 21 20 20 20 20 20 21 21 20 20 20 20 20 20 20 20 20 20 20 20 20 20 20 20 20 19 19 20 20 20 21 21 22 22 23 24 24 25 25 26 26 26 27 27 27 27 28 28 28 28 28 28 28 28 28 29 28 28
26 26 26 26 26 27 28 29 29 28 28 29 29 29 28 27 28 29 28 29 29 27 25 24 22 21 22 22 22 23 23 23 22 22 22 21 21 21 20 21 21 20 20 21 21 21 22 22 22 22 22 22 22 22 22 22 22 22 23 23 23 24 24 24 25 25 26 26 27 27 27 27 28 28 28 28 28 29 29 29 30 30 30 30 31 31 31
25 26 26 26 27 29 30 30 30 29 29 29 30 29 28 28 29 29 29 30 29 27 26 27 28 28 27 26 25 26 26 25 25 24 24 23 23 22 22 22 23 22 22 22 22 22 22 23 23 23 24 24 24 24 24 24 25 25 25 26 26 26 26 27 27 27 27 28 28 28 28 29 29 29 30 30 30 30 30 31 31 31 31 32 33 34 34
24 23 24 26 26 28 30 31 30 30 29 29 29 28 28 28 28 28 29 29 28 26 26 27 28 28 29 29 28 28 27 28 28 27 27 26 25 24 24 24 24 24 23 23 23 23 23 23 24 24 24 25 25 25 26 26 26 26 26 27 28 28 28 28 28 29 29 29 29 29 30 30 30 31 31 32 32 33 33 33 33 33 33 34 35 35 35
23 23 24 24 22 24 27 27 27 29 30 30 29 29 29 29 29 28 28 28 27 25 25 26 26 26 27 27 28 27 27 27 28 28 27 27 26 26 25 24 24 24 24 24 23 23 24 24 25 25 25 25 26 26 27 27 27 27 28 28 29 29 29 29 30 30 30 30 31 31 31 31 31 32 32 33 33 34 34 34 34 34 34 34 35 35 36
23 23 22 21 22 24 24 22 23 25 26 27 28 28 28 28 28 28 28 27 26 25 25 25 26 27 26 26 26 26 26 26 27 27 27 26 26 25 25 25 25 25 25 25 24 24 25 25 25 26 26 26 26 27 27 27 28 28 29 29 29 30 30 31 31 31 31 31 31 31 32 32 32 33 33 33 34 34 34 34 34 34 34 34 35 35 36
23 23 21 21 24 25 22 21 21 21 22 23 25 26 26 26 26 26 27 27 26 26 26 26 27 28 28 27 27 28 28 28 29 29 28 26 25 25 25 25 25 25 25 25 25 25 26 26 26 27 27 27 27 27 28 28 28 29 29 30 30 30 31 31 31 31 31 32 32 32 32 32 33 33 33 34 34 34 34 34 34 34 34 34 34 35 35
23 23 23 24 24 23 21 20 20 21 22 22 24 25 26 25 24 24 25 26 25 25 26 26 26 26 26 26 26 26 26 26 26 26 25 25 25 25 25 25 25 25 26 26 26 25 26 26 27 27 27 27 28 28 28 28 29 29 30 30 30 30 31 31 31 32 32 32 32 32 33 33 33 33 33 33 34 34 34 34 34 34 34 33 34 34 34
22 23 24 25 25 25 24 22 21 20 21 22 23 24 24 23 23 23 24 25 25 25 25 25 25 25 25 24 24 23 22 22 22 22 23 24 24 25 25 25 25 26 26 26 26 26 26 27 27 27 28 28 28 28 29 29 29 29 30 30 30 30 31 31 31 32 32 33 33 33 33 33 34 34 33 33 33 33 33 34 34 33 33 33 33 33 33
22 24 24 24 24 24 22 20 19 19 20 20 21 22 22 21 22 23 23 24 25 25 25 25 24 24 24 23 22 22 21 21 22 22 23 24 25 25 25 26 26 26 26 27 27 27 27 27 28 28 28 28 29 29 29 29 29 30 30 30 31 31 31 31 31 32 32 33 33 33 33 33 33 33 33 33 33 33 33 33 33 33 32 32 31 32 32
23 23 23 23 23 22 19 18 18 19 19 19 20 21 21 20 20 21 22 23 23 24 24 24 24 23 22 21 21 21 21 21 21 23 23 24 25 26 26 26 26 26 27 27 28 28 28 28 28 28 29 29 29 29 29 30 30 30 30 31 31 31 31 31 32 32 32 32 33 33 33 33 33 34 34 33 33 33 33 33 32 31 31 31 31 32 32
24 24 24 23 23 21 19 19 19 19 19 20 21 22 21 19 20 20 21 22 22 23 24 24 23 22 21 20 20 21 22 22 22 23 24 25 25 26 27 27 26 26 27 28 28 28 29 29 29 29 30 30 30 30 30 30 30 30 30 31 31 31 32 32 32 32 32 32 32 32 33 33 33 34 34 34 34 33 32 31 31 31 31 31 31 32 32
24 24 24 23 22 20 19 20 20 20 21 21 23 22 21 21 22 22 23 23 23 23 24 24 23 22 21 21 22 23 24 25 24 25 25 25 26 27 27 27 27 27 28 29 29 29 30 30 30 30 30 30 31 31 31 31 31 31 31 31 31 31 32 32 32 32 32 33 33 33 33 33 33 34 34 34 34 32 32 31 31 32 32 31 31 31 31
23 22 23 23 22 20 20 21 21 21 22 22 22 22 22 22 23 23 24 25 25 25 25 24 24 24 23 23 24 24 25 25 26 26 27 27 27 28 28 29 29 29 29 30 30 30 31 31 31 31 31 32 32 32 32 32 32 31 31 31 31 32 32 32 32 33 33 33 34 34 34 34 34 34 35 34 32 32 32 32 32 32 31 31 31 30 30
22 22 23 23 21 19 19 20 20 20 21 21 22 22 23 23 24 24 25 25 25 26 26 26 26 26 26 26 26 26 27 27 28 28 29 29 29 29 29 30 31 31 31 31 31 31 31 32 32 32 32 33 33 33 33 33 32 32 32 32 32 32 32 32 32 32 33 33 34 34 34 35 35 35 34 33 32 32 32 32 31 31 31 30 30 29 29
21 22 21 20 19 19 20 21 21 22 23 23 24 24 24 24 25 25 26 26 26 27 27 27 28 28 29 29 28 28 29 29 29 30 30 31 31 31 32 32 32 32 33 33 33 33 33 33 33 33 33 34 34 34 34 33 33 33 33 33 33 33 33 32 32 32 32 33 33 33 34 34 34 34 33 32 32 32 32 31 31 30 30 29 29 28 28
21 22 22 21 21 22 23 23 23 24 25 25 25 25 26 26 26 26 26 27 28 28 28 29 29 29 30 30 30 30 30 31 31 31 32 33 33 33 33 34 34 34 34 34 34 34 34 34 34 34 34 34 35 35 34 33 33 34 34 34 34 33 33 33 33 33 33 33 33 33 32 32 32 32 32 31 31 31 31 30 30 29 28 27 27 27 26
23 24 25 24 25 25 24 24 25 26 26 27 27 28 28 28 28 27 28 28 29 29 30 30 31 31 31 31 31 32 32 32 32 33 34 34 34 34 34 34 34 34 34 34 34 34 34 34 34 34 34 34 34 34 34 33 33 34 34 34 33 33 33 33 33 34 34 34 33 33 32 31 31 30 30 30 30 29 28 28 27 26 26 25 25 24 24
23 23 23 23 24 25 25 26 27 27 28 28 28 28 28 28 28 28 29 29 30 30 31 31 32 32 32 32 33 33 33 34 34 34 34 35 35 35 34 34 34 34 34 34 35 35 34 34 34 34 34 34 34 34 33 33 33 33 33 33 34 34 34 33 33 34 33 33 32 32 31 30 30 29 29 28 27 26 26 25 24 24 23 23 22 22 21
22 23 23 24 25 26 26 26 26 26 26 27 27 27 28 28 29 29 29 30 31 31 32 32 33 33 33 33 33 33 33 34 34 34 35 35 35 35 35 35 34 34 35 35 35 35 35 34 34 33 33 33 33 33 32 32 32 32 32 33 34 34 34 33 33 32 31 31 30 30 29 29 28 27 26 26 25 23 23 22 21 21 21 20 20 20 20
21 22 22 22 23 24 24 24 24 25 26 26 27 28 29 30 30 31 31 32 32 32 33 33 34 34 34 34 34 34 34 34 34 34 34 35 35 35 35 34 34 34 35 35 34 34 34 33 33 33 32 32 32 32 31 31 31 32 32 33 33 33 32 31 30 29 29 28 28 27 26 25 24 23 22 22 21 21 21 20 19 19 19 19 19 19 18
20 19 20 20 22 22 23 24 25 26 27 28 29 30 30 31 31 31 32 32 32 33 33 33 33 34 34 34 34 34 34 34 34 34 34 34 34 34 34 34 34 34 33 33 33 33 32 32 32 32 31 31 31 30 30 30 30 31 31 31 31 30 29 28 28 27 26 26 25 24 22 20 20 19 18 18 18 19 19 19 18 18 17 17 17 17 17
20 21 22 23 24 24 25 26 27 28 28 29 30 30 30 30 30 30 31 31 31 32 32 32 33 33 34 34 34 34 33 33 34 34 33 33 33 33 32 32 32 32 32 32 32 32 32 31 31 31 31 30 30 29 28 28 29 29 29 28 28 27 26 26 25 24 23 22 21 20 19 19 18 17 17 16 16 16 16 16 16 16 15 15 15 15 15
23 23 24 25 25 26 27 28 28 28 28 28 29 29 29 29 29 29 29 30 31 31 31 32 33 33 34 34 34 34 34 33 33 33 33 33 33 32 32 32 33 33 33 33 33 32 32 31 31 30 29 29 27 27 26 26 26 26 25 25 25 24 23 23 22 20 19 19 18 18 17 17 17 17 17 16 16 15 14 14 14 14 13 13 13 13 12
23 24 25 25 26 27 28 28 28 27 26 27 27 27 27 27 28 28 28 29 30 31 31 31 32 32 33 33 34 34 34 34 33 33 33 33 33 33 33 33 33 32 32 31 31 31 30 30 29 28 27 26 25 24 24 23 22 22 22 21 21 20 19 18 17 16 16 16 16 16 16 16 17 16 16 16 15 14 14 13 13 12 12 12 11 11 11
24 25 26 27 27 27 26 26 25 25 25 25 25 25 26 26 26 27 27 28 28 29 29 29 29 29 30 30 31 32 32 32 32 32 32 32 32 32 31 31 31 31 30 29 29 28 28 27 27 26 24 23 23 22 21 20 19 18 17 16 15 14 14 13 13 13 14 14 14 15 15 15 15 15 15 14 14 14 13 13 12 11 11 10 10 10 9
24 25 26 26 26 25 24 24 24 24 24 24 24 24 24 24 24 25 25 26 26 26 26 26 26 26 26 27 28 28 29 29 29 29 29 29 29 29 29 29 29 29 29 28 28 27 26 26 25 24 23 21 20 19 17 16 15 14 12 11 10 10 11 12 12 13 14 14 14 15 14 14 14 14 14 14 14 13 13 12 11 11 10 10 10 10 9
24 24 24 24 23 23 23 23 23 23 22 22 22 22 22 22 22 22 22 23 23 22 22 22 22 22 22 23 23 24 24 24 25 26 26 26 26 27 27 27 28 28 28 27 27 26 26 25 24 23 22 20 18 16 14 13 12 11 10 9 10 11 11 11 12 14 15 15 15 14 14 14 14 14 14 13 13 12 11 11 11 10 10 10 10 10 9
21 20 20 20 20 20 20 20 20 20 19 19 19 19 19 19 19 19 19 19 18 18 18 18 19 19 19 19 20 20 21 22 23 23 23 24 24 24 24 25 25 25 25 25 25 24 24 23 22 21 20 18 16 14 13 12 11 11 12 13 13 13 12 13 14 15 16 15 15 14 14 14 14 14 13 12 11 11 11 10 10 10 10 10 10 9 9
18 18 17 17 17 17 17 17 17 17 16 17 17 16 16 16 16 16 15 15 15 14 15 15 15 16 15 16 16 16 17 18 18 19 19 20 20 20 21 21 21 21 21 20 20 20 20 19 18 18 17 16 15 14 14 14 13 14 15 16 14 13 13 14 14 15 15 14 13 13 14 14 13 13 12 11 10 10 10 10 10 10 10 10 10 9 9
18 17 17 16 15 14 14 14 14 14 14 14 14 14 14 13 12 11 11 11 11 11 11 12 12 12 13 13 13 13 13 13 14 14 15 16 16 17 17 17 17 17 16 16 15 15 16 16 16 16 16 16 16 16 17 17 16 16 16 16 14 12 12 12 12 12 13 13 12 12 12 12 12 11 10 10 9 9 9 9 9 9 9 9 8 8 7
17 16 15 14 13 13 13 13 13 14 13 13 12 11 10 8 8 8 8 8 8 8 9 10 11 11 12 12 12 12 12 12 12 13 13 13 14 14 14 14 13 13 13 13 13 13 14 14 15 16 17 17 17 18 20 20 18 16 15 14 13 12 11 11 10 11 11 12 12 12 11 11 11 11 10 9 9 9 9 9 9 9 9 8 7 6 6
15 14 13 13 13 13 14 13 12 12 12 10 8 6 5 5 6 6 6 6 6 7 8 9 10 10 10 10 10 10 10 9 9 9 9 9 10 10 9 9 9 8 9 10 11 12 13 14 16 17 17 17 18 20 21 20 18 16 14 13 12 11 11 10 10 10 10 11 11 11 11 11 11 10 10 9 8 8 8 8 8 8 8 7 6 6 6
12 12 12 13 12 12 12 12 11 9 8 6 4 3 3 4 4 4 4 5 6 7 7 8 9 9 10 9 8 7 6 5 5 5 5 5 5 5 4 5 6 7 8 9 9 10 12 15 17 17 17 18 19 21 21 20 18 15 13 12 12 11 11 11 11 10 10 10 11 11 10 10 10 9 9 9 8 8 7 7 7 7 7 7 6 6 6
11 11 12 11 10 9 9 8 6 5 3 2 1 2 2 2 3 3 4 5 6 6 7 8 10 11 11 11 11 10 8 5 3 2 1 0 1 2 3 5 7 9 10 10 11 12 14 16 17 18 18 19 21 21 20 18 16 14 12 11 11 11 11 11 11 10 10 10 10 10 9 9 9 9 8 8 8 7 7 7 7 7 7 7 6 6 6
10 9 8 7 6 5 5 4 2 2 1 1 1 2 2 2 3 3 4 5 6 6 7 9 11 12 13 13 13 13 11 10 8 7 7 6 6 7 9 10 11 11 12 12 12 13 15 16 17 18 20 21 21 20 17 16 15 13 12 11 11 11 11 11 10 10 10 9 9 9 9 8 8 8 8 8 7 7 7 7 7 7 7 6 6 6 6
6 6 6 4 4 3 3 2 2 2 2 3 3 3 3 3 3 3 4 6 6 7 8 9 11 13 14 14 14 14 14 13 12 12 11 11 11 11 11 12 12 12 12 12 12 13 15 17 19 20 21 21 19 17 16 15 14 12 11 11 11 11 11 10 10 10 9 9 9 9 9 8 8 8 8 7 7 7 7 7 7 6 6 6 6 6 5
4 5 4 3 3 3 4 4 4 4 4 4 3 3 3 3 3 4 5 6 7 8 9 10 11 13 14 15 15 15 16 16 15 14 14 14 14 14 14 13 13 13 13 13 13 15 17 19 20 20 20 18 17 16 15 14 13 12 12 11 11 10 10 9 8 8 8 8 8 8 8 8 8 7 7 7 7 7 7 7 6 6 6 6 6 6 5
3 4 3 3 3 4 4 4 4 5 5 4 4 5 5 5 5 6 7 7 8 9 10 10 12 14 16 16 16 16 16 16 17 17 17 16 16 17 17 16 16 15 15 15 16 17 18 19 19 18 17 16 15 15 14 12 12 11 11 10 9 9 9 8 7 6 7 7 8 8 7 7 7 6 6 6 7 7 7 7 6 6 6 6 5 5 5
3 3 4 4 5 5 5 5 5 5 5 5 6 6 6 7 7 7 8 9 9 10 11 11 11 13 15 17 17 18 17 17 18 18 18 18 18 18 18 18 18 18 17 17 18 18 19 18 18 17 16 14 14 13 12 11 10 10 9 8 8 8 7 7 6 6 6 7 7 7 7 7 6 6 6 6 6 6 6 6 6 6 6 5 5 5 6
4 5 5 6 6 6 5 5 5 5 6 6 7 7 7 7 8 8 9 10 10 11 11 11 11 12 14 15 17 18 18 18 18 18 18 18 18 18 18 18 18 18 18 18 18 17 17 16 16 15 13 12 12 11 10 10 9 9 8 7 7 7 6 6 5 5 6 6 6 6 6 7 7 7 7 6 6 6 6 6 6 6 6 6 6 6 7
6 6 6 6 6 6 6 6 6 7 7 8 7 7 7 8 8 9 10 10 11 11 11 12 12 13 13 13 14 15 16 17 18 18 19 19 19 18 18 18 17 17 17 17 16 15 14 13 12 11 10 9 9 8 8 9 9 8 7 7 6 6 5 5 5 5 5 5 5 5 6 6 7 7 7 7 7 7 6 6 6 6 6 6 7 7 8
6 6 6 5 5 6 6 6 6 7 8 8 8 8 8 9 9 9 10 10 10 10 10 11 12 13 13 13 13 14 14 15 15 16 17 18 18 18 17 16 16 15 15 15 14 13 13 12 11 9 8 8 7 7 8 8 8 8 7 7 6 6 6 5 5 5 5 5 5 5 6 6 7 7 7 7 7 7 7 7 7 7 7 7 8 8 9
5 5 5 5 5 5 5 6 6 7 8 8 9 9 9 9 9 9 9 9 9 9 9 9 10 11 12 12 12 13 13 13 13 13 14 15 15 15 15 14 14 13 13 13 13 12 11 10 9 8 7 7 6 6 6 6 6 6 6 6 6 6 6 5 5 5 5 5 5 6 6 6 7 7 8 8 8 8 8 8 8 8 9 9 9 10 10
5 5 4 4 3 4 5 6 6 7 8 9 9 9 9 9 8 8 8 8 8 8 8 8 9 9 10 10 10 11 12 13 13 12 12 12 12 12 12 12 11 11 11 10 10 10 9 8 7 6 5 5 4 4 5 5 4 4 5 5 5 5 5 5 5 5 5 5 5 6 6 6 7 8 8 8 9 9 9 9 9 10 10 10 11 11 11
6 5 4 3 3 3 5 6 7 7 8 8 8 8 8 7 7 7 7 7 7 7 7 7 8 8 8 8 8 9 10 10 11 11 11 11 10 10 10 10 9 9 8 8 7 7 6 5 4 4 3 2 2 2 2 2 3 3 3 4 4 4 5 5 5 5 5 5 6 6 6 7 8 8 9 9 9 10 10 10 10 11 11 11 11 11 11
8 7 6 5 4 4 5 6 6 7 7 6 6 6 6 6 6 6 6 6 6 6 5 6 6 6 6 6 6 6 7 7 8 8 8 8 8 8 8 8 7 7 7 6 6 5 4 3 2 2 1 0 0 1 2 3 3 3 4 4 4 5 5 5 6 6 6 6 6 7 7 8 8 9 9 10 10 10 10 11 11 11 11 11 11 11 11
11 9 8 7 6 5 5 6 7 7 6 6 6 6 6 5 5 5 5 5 5 5 5 5 5 5 5 5 6 6 5 5 5 5 5 5 6 6 6 6 6 6 5 5 5 4 4 3 3 3 2 2 2 2 3 3 4 4 5 5 5 6 6 7 7 8 8 8 8 9 9 9 9 10 10 10 11 11 11 11 12 12 12 12 11 11 11
13 12 11 10 8 7 7 7 7 7 6 6 5 5 5 5 4 4 3 2 3 3 3 3 3 3 3 4 4 4 4 4 4 4 3 3 4 4 4 5 5 5 5 4 4 4 4 4 4 4 4 4 4 4 5 5 5 5 6 6 7 7 8 8 9 9 9 10 10 10 11 11 11 11 12 12 12 12 12 12 12 13 13 12 12 12 12
15 14 13 12 11 10 9 9 8 7 7 7 6 6 5 5 4 3 3 2 1 1 1 1 1 1 1 1 2 2 2 3 3 3 3 3 3 4 4 4 5 5 5 5 6 6 6 6 6 6 6 6 6 6 7 7 7 7 8 8 8 9 9 9 10 10 11 11 12 12 12 12 13 13 13 14 14 14 14 14 14 14 14 14 13 13 13
15 16 15 15 13 12 12 12 10 9 8 8 7 7 7 6 5 4 4 4 4 3 3 2 2 1 2 2 2 2 2 2 3 3 3 3 4 5 5 6 6 7 7 8 8 9 9 9 9 9 8 8 8 8 9 9 9 9 10 10 11 11 11 12 12 12 12 13 13 13 13 14 14 14 14 15 15 15 15 16 16 16 15 15 14 14 14
15 16 16 16 15 15 15 14 13 11 10 10 10 9 8 8 7 6 6 6 5 5 5 4 4 4 4 4 3 3 4 4 4 5 5 5 6 7 7 8 8 9 10 10 11 11 11 11 11 11 11 11 11 11 11 11 11 12 12 12 13 13 13 14 14 14 15 15 15 15 16 16 16 16 16 16 16 17 17 17 17 17 16 16 16 15 15
Wind_Direction
260 261 263 263 263 264 263 262 260 261 262 262 261 260 261 263 263 263 266 267 266 263 261 260 260 259 258 256 254 254 255 257 258 257 258 258 257 256 254 252 250 249 250 251 252 254 255 256 256 257 257 257 258 258 258 258 258 258 258 259 259 258 258 258 257 257 258 258 258 258 258 258 258 258 259 259 259 259 260 260 261 261 260 259 259 259 259
262 261 262 262 263 263 263 261 260 261 261 261 262 262 262 262 262 264 267 267 265 264 262 261 262 262 262 261 257 255 256 257 257 257 258 258 257 255 252 252 252 252 252 253 253 255 257 258 258 259 260 260 260 259 260 260 260 260 260 261 261 261 261 261 260 260 259 259 259 259 258 258 258 259 259 259 260 260 261 261 262 261 260 260 259 259 261
263 262 262 262 263 264 263 261 260 260 261 261 261 262 262 263 263 264 266 266 265 265 264 263 262 261 261 260 257 257 257 257 258 259 258 258 257 255 253 254 256 255 254 255 255 256 257 258 259 259 260 261 261 261 262 262 262 263 262 262 262 263 263 263 262 261 261 260 260 259 259 259 259 260 260 260 261 262 263 263 262 261 261 261 261 261 262
263 263 264 264 266 266 262 261 261 261 261 262 262 262 262 263 264 265 266 265 265 266 266 265 262 261 259 258 257 257 257 258 259 259 259 258 258 256 254 256 258 257 256 257 257 257 258 258 258 259 260 260 261 262 263 263 263 264 263 263 263 263 263 263 262 262 262 261 261 261 261 261 261 261 261 261 261 262 263 263 262 261 261 261 262 262 262
264 264 265 267 270 267 262 261 263 262 261 261 261 262 262 262 263 264 264 264 266 269 268 266 264 263 261 260 259 258 259 259 259 258 258 258 257 255 254 255 258 259 259 259 259 259 259 259 260 260 260 260 260 261 262 262 263 263 263 263 262 262 262 262 262 262 262 262 262 262 262 262 262 262 262 262 263 263 263 262 262 261 262 262 262 262 261
265 266 267 267 264 261 262 265 266 264 262 260 261 262 263 263 262 263 265 266 267 267 267 267 266 263 262 262 262 260 260 260 259 258 258 259 256 253 253 255 258 260 262 262 262 262 261 262 262 262 261 261 261 262 262 262 263 263 263 263 262 262 262 262 262 262 262 263 262 262 262 263 263 263 263 264 264 264 263 262 261 261 262 262 262 262 261
266 266 264 262 260 261 264 266 266 267 267 265 265 265 265 264 264 264 265 266 266 266 267 268 268 265 263 263 262 261 261 261 259 258 256 255 253 251 253 256 259 261 263 264 263 263 262 263 263 262 262 262 263 264 264 265 265 265 265 264 263 263 263 263 262 262 262 262 262 262 263 263 264 264 264 264 264 263 263 263 262 262 262 262 262 261 260
264 264 259 259 264 266 263 262 264 265 266 267 267 266 264 263 263 264 265 264 265 266 267 268 268 267 265 263 262 262 262 260 258 255 251 250 250 252 255 258 260 262 264 264 264 263 263 263 263 263 263 264 264 265 266 267 267 266 266 265 264 263 263 263 263 262 262 262 262 262 263 264 264 265 265 264 264 263 263 263 263 262 262 262 262 260 259
261 262 261 263 267 267 262 262 265 267 267 269 269 268 266 262 262 264 266 265 264 265 266 267 268 267 266 263 261 261 261 259 254 250 248 249 252 255 258 259 261 263 264 264 264 264 263 264 264 264 264 265 265 266 267 267 267 267 266 265 265 264 264 264 263 263 263 263 263 263 264 264 264 265 265 264 264 264 263 263 263 262 262 262 261 260 258
260 262 264 264 265 266 265 266 268 269 268 269 270 270 267 264 263 265 266 266 265 266 267 267 268 267 266 263 259 257 257 255 253 251 251 253 255 257 258 260 262 262 263 264 265 264 264 264 264 265 265 266 266 267 267 268 268 268 267 266 266 265 265 265 264 264 264 264 264 263 264 264 264 264 264 264 264 264 263 262 262 262 261 261 261 259 258
258 259 262 263 264 266 267 267 267 267 267 268 269 268 265 265 267 268 268 267 267 267 267 268 268 267 265 262 260 258 256 254 255 256 256 256 256 258 260 261 262 263 264 265 265 265 265 265 265 266 266 267 267 267 268 268 269 268 268 267 266 266 266 265 265 265 264 264 264 264 264 264 264 264 264 263 264 263 263 262 262 261 260 260 260 260 260
257 258 261 263 264 267 267 265 265 267 268 269 269 267 265 265 267 269 270 270 270 269 269 268 267 265 264 261 259 258 257 257 259 259 258 258 259 260 261 262 264 264 265 265 265 265 265 266 266 267 267 267 267 267 268 268 269 269 268 267 267 266 266 266 265 265 265 265 265 264 264 264 264 264 264 263 263 262 261 261 261 260 260 260 260 260 259
257 258 260 262 263 265 267 266 266 268 270 268 266 266 267 267 268 269 270 270 270 270 270 268 265 263 263 263 260 258 258 259 260 260 260 260 261 262 262 263 265 265 265 265 265 266 267 267 267 267 267 267 267 267 268 268 269 269 269 268 267 267 266 266 266 266 266 266 266 265 265 265 264 264 264 263 262 260 259 260 260 259 260 260 259 259 258
259 259 260 261 262 265 269 269 268 268 267 266 267 268 269 269 270 271 271 270 270 269 268 267 266 264 264 264 263 261 260 260 261 261 261 262 263 263 264 264 264 265 266 266 266 267 268 268 268 267 267 268 268 268 268 269 269 269 269 268 268 267 267 267 267 267 267 267 267 266 266 265 264 264 264 262 259 258 258 259 259 259 258 258 257 256 255
261 260 260 261 262 265 271 272 270 267 265 268 272 272 271 271 272 272 272 271 271 269 268 267 266 266 266 265 265 264 263 262 262 262 263 264 265 266 266 266 266 267 267 267 267 268 268 268 268 267 268 268 269 269 269 269 269 269 268 268 268 268 267 267 268 268 268 268 267 267 266 265 264 264 262 260 257 257 259 259 259 258 257 256 255 254 253
262 261 260 262 263 265 270 272 271 269 268 270 274 274 273 273 273 272 272 271 270 270 269 269 268 267 266 266 265 264 263 263 263 264 264 265 266 267 268 268 268 268 268 268 268 268 268 268 268 268 268 269 269 269 269 269 269 268 268 268 268 268 268 268 269 269 269 269 269 268 267 266 264 262 259 257 257 258 259 258 257 256 254 253 252 252 252
264 264 265 266 266 268 271 272 272 272 272 271 273 274 273 273 273 272 272 271 271 271 271 271 270 269 268 267 266 265 265 264 264 264 265 266 267 268 268 269 269 269 269 268 268 268 268 269 269 269 268 269 269 269 269 268 268 268 268 268 268 268 269 269 269 270 270 270 270 269 267 265 263 260 256 256 257 258 257 256 254 252 251 251 250 250 251
268 267 267 268 269 271 272 272 273 274 274 274 274 274 273 273 272 271 271 271 271 272 271 271 270 270 269 268 267 267 266 265 265 265 266 267 268 268 269 270 270 270 269 269 269 269 269 269 269 269 268 268 268 269 269 268 268 268 268 268 268 269 269 270 270 270 270 270 268 266 264 263 261 258 256 256 256 254 252 251 250 249 249 249 248 248 249
270 269 269 270 272 272 273 274 274 275 275 275 275 274 274 274 274 273 273 272 272 272 272 271 270 270 270 269 268 267 266 266 266 266 266 266 267 267 268 269 269 269 269 269 269 269 270 270 270 269 269 269 269 269 269 268 268 268 268 268 269 269 270 270 270 270 269 267 265 263 261 260 257 256 255 254 251 249 247 246 245 245 245 245 244 244 245
270 271 273 274 274 274 275 275 275 276 277 277 276 276 276 275 275 274 274 273 273 273 272 272 272 271 270 270 269 268 267 267 267 267 267 267 267 267 268 268 268 269 268 268 269 269 269 269 269 269 269 269 269 269 268 268 268 268 269 269 270 270 270 270 270 269 267 265 262 260 259 256 253 252 250 248 246 245 243 241 240 240 240 239 239 240 242
273 273 275 277 277 276 276 276 276 277 278 278 278 278 277 276 276 276 275 274 274 274 273 273 272 272 271 270 269 269 268 268 267 267 268 267 267 268 268 268 268 268 268 269 268 268 268 268 268 268 268 268 268 268 268 268 269 269 270 270 270 270 270 269 268 266 264 262 259 256 253 250 248 246 245 243 241 240 238 236 236 236 236 236 238 239 241
275 276 279 281 281 279 278 279 280 281 281 280 280 279 279 278 277 277 276 276 275 275 274 274 273 272 271 271 270 269 268 268 268 268 268 267 267 267 268 268 268 268 267 268 268 268 268 268 268 267 267 267 268 268 268 268 269 270 270 270 269 269 268 266 264 262 261 258 253 248 245 242 240 239 239 237 234 232 231 231 231 232 232 233 235 236 237
279 281 283 284 282 281 281 283 283 283 282 282 281 280 280 279 278 278 279 278 278 276 275 274 273 272 272 271 270 269 268 268 268 267 267 267 267 267 267 267 267 267 267 268 268 268 268 267 267 267 267 267 267 267 268 269 269 269 269 268 267 266 264 262 260 258 254 249 243 239 237 234 230 227 225 224 223 223 224 224 224 224 225 227 229 231 232
282 283 284 284 283 283 284 284 284 284 283 282 281 281 281 280 280 280 280 279 279 278 277 276 275 273 272 271 270 269 268 268 267 267 267 267 267 267 267 267 267 268 268 268 268 267 267 267 266 266 266 266 265 266 268 269 268 268 268 266 265 263 260 257 255 251 244 238 233 231 227 221 215 212 212 212 213 214 216 217 218 219 220 222 225 226 228
284 285 285 285 285 285 285 285 284 284 284 283 282 282 282 282 281 281 280 280 280 280 279 278 277 275 274 272 270 268 268 267 267 267 267 267 266 267 267 267 267 267 267 267 267 266 266 265 265 265 265 264 264 265 266 265 265 266 267 265 263 260 254 248 244 239 232 225 220 215 210 205 204 205 207 207 208 209 211 212 213 214 215 217 219 221 226
287 288 288 287 286 286 287 286 285 285 285 285 284 283 283 283 283 282 282 281 281 281 281 280 279 277 275 272 270 268 267 267 267 268 268 267 266 266 266 267 267 267 266 266 265 265 264 263 263 262 261 261 261 260 260 261 262 263 264 261 256 247 234 224 219 215 210 205 199 194 192 193 195 197 197 197 199 201 202 203 205 207 208 211 214 218 223
290 291 291 290 288 287 287 286 285 286 287 286 285 285 285 285 285 285 284 283 283 283 282 281 280 279 276 274 272 270 268 268 268 267 267 267 266 266 266 266 266 266 265 263 262 262 262 261 260 258 256 255 255 254 254 255 255 252 248 241 228 212 201 196 193 189 185 181 177 176 177 180 182 182 183 185 188 190 191 193 196 200 203 207 211 215 216
293 294 293 291 288 287 287 286 286 286 286 286 287 288 287 287 286 286 286 286 286 285 284 284 284 282 280 278 276 273 271 271 270 269 268 268 267 267 267 267 266 265 264 262 260 260 259 257 256 254 251 248 246 244 243 240 234 224 211 198 186 179 176 175 174 172 169 167 165 166 168 170 172 172 173 176 179 182 185 189 193 197 199 201 203 205 208
298 297 295 292 290 289 288 288 288 287 288 288 289 289 289 289 288 287 288 290 291 291 290 289 288 287 285 283 280 278 275 274 272 271 270 269 269 268 267 267 266 264 262 259 257 255 253 251 249 246 241 235 231 227 221 212 201 189 178 171 166 163 162 161 161 162 164 166 167 168 168 168 167 168 170 175 180 186 189 191 194 196 195 196 199 204 208
301 300 296 294 293 292 290 290 290 290 291 292 292 291 291 291 291 292 294 296 297 296 296 295 294 292 291 289 286 284 280 277 274 272 270 269 268 268 267 266 264 261 258 255 251 247 244 241 237 232 224 217 212 205 195 185 177 170 165 162 160 159 160 160 159 161 165 168 171 172 173 172 172 173 176 180 185 190 191 192 194 195 194 195 200 204 204
301 300 297 295 294 293 292 292 293 295 296 298 297 297 296 296 297 300 303 305 304 304 305 307 306 304 301 297 292 288 284 280 277 275 273 272 271 270 268 265 261 256 251 247 241 236 232 227 222 214 205 198 195 189 181 174 168 164 162 162 160 158 160 163 166 169 172 174 174 174 177 178 178 179 180 181 182 186 189 189 190 192 193 192 193 193 195
300 300 298 296 296 296 295 296 297 299 300 301 301 301 302 303 307 310 311 312 314 316 319 321 319 315 309 302 296 290 285 281 279 276 274 274 274 273 269 263 257 249 240 233 227 224 221 214 204 196 190 187 185 181 177 172 167 164 164 165 165 163 164 169 173 175 176 177 177 178 178 180 183 185 187 187 187 188 191 191 189 190 192 189 187 193 207
301 299 298 298 299 299 299 299 301 301 302 302 303 306 308 311 314 315 317 324 330 331 333 335 333 330 325 319 312 303 295 288 284 280 276 275 276 274 266 256 246 233 221 215 212 209 204 196 187 182 180 178 177 175 173 171 168 167 167 169 170 169 170 171 172 172 174 176 179 180 181 183 188 190 191 192 190 189 191 191 191 192 194 193 197 211 224
301 299 300 301 301 300 299 301 303 305 305 305 312 320 322 322 325 330 342 351 352 352 356 358 357 356 356 356 354 345 330 311 297 289 282 277 275 268 249 224 206 192 182 179 178 176 175 173 170 168 168 168 167 166 167 168 169 170 171 172 172 173 174 174 175 175 176 178 181 183 183 182 183 184 186 188 189 188 187 187 188 192 196 200 210 222 227
307 307 306 305 304 305 305 306 308 310 309 316 342 351 348 351 357 3 7 9 12 19 24 24 22 21 20 19 19 18 15 12 9 6 14 91 153 152 147 152 157 155 150 148 149 151 155 157 158 159 160 159 158 159 162 167 169 170 171 172 173 173 174 175 177 179 180 180 181 180 177 174 175 179 181 184 187 189 190 190 193 198 203 209 217 224 225
315 316 317 319 323 327 327 330 336 339 355 52 61 48 36 27 22 23 25 27 31 37 39 37 37 36 33 30 30 32 36 44 57 68 78 90 104 112 116 123 130 133 134 135 138 143 148 151 152 153 153 152 154 158 162 164 164 164 165 166 167 168 170 172 173 175 175 176 177 176 174 175 180 183 184 185 187 189 191 195 200 206 211 216 221 225 227
328 334 339 344 355 5 16 32 47 67 83 82 76 67 53 42 42 47 47 46 47 49 50 49 47 45 42 40 42 45 49 53 60 68 76 85 95 102 106 110 116 122 127 130 134 140 145 146 145 145 148 150 153 157 159 159 158 159 160 160 160 162 166 170 173 174 175 177 179 180 181 183 185 186 187 189 191 193 197 201 205 209 213 218 222 227 234
342 350 359 14 34 54 67 69 72 83 88 83 78 77 73 72 74 70 62 60 62 62 60 59 58 56 53 52 53 56 58 61 65 69 74 81 88 94 97 101 106 114 121 127 131 136 140 141 141 143 147 150 152 153 153 153 154 155 156 156 157 159 163 166 170 175 179 182 182 182 184 187 189 190 191 193 194 197 200 205 209 212 216 219 224 232 244
350 2 26 48 62 76 81 76 71 75 81 84 89 93 92 88 83 75 70 72 74 73 70 69 67 64 61 59 59 61 64 68 71 74 76 80 86 90 93 96 101 108 116 123 127 132 136 138 140 142 146 147 148 149 151 151 152 155 158 159 158 160 163 166 169 174 181 184 184 184 186 189 191 193 195 197 199 200 202 206 211 216 220 225 232 243 255
35 59 75 80 84 87 84 77 73 76 84 92 98 100 97 90 83 80 81 84 85 81 77 75 72 68 65 64 65 67 69 72 75 77 78 81 84 88 90 93 96 102 108 115 120 125 130 134 137 139 141 143 146 150 153 156 158 160 162 164 164 166 169 174 178 182 185 187 188 188 189 191 194 198 200 202 204 207 210 213 217 222 227 235 245 255 264
88 96 95 92 91 88 83 82 84 86 92 98 100 98 97 94 90 90 92 93 91 85 79 76 75 73 71 71 72 73 74 77 79 79 80 81 84 87 90 91 93 98 103 109 114 119 124 127 131 134 136 140 145 149 154 159 161 160 158 161 166 169 172 177 180 182 185 188 192 195 198 200 201 203 206 209 212 217 221 225 229 234 240 248 256 263 271
105 104 98 92 88 85 86 92 95 94 95 98 98 99 103 104 100 97 97 95 91 85 79 76 76 74 71 71 73 75 76 78 80 82 82 82 83 87 91 93 94 95 99 104 108 112 115 120 124 128 133 139 145 150 153 156 160 161 162 166 170 173 174 177 178 180 184 190 195 200 205 207 207 209 212 217 221 225 230 235 241 247 254 260 266 272 277
113 108 102 97 95 91 92 99 103 100 100 102 103 105 109 107 102 98 97 94 89 85 80 78 77 75 71 70 71 73 75 78 80 82 83 84 83 85 89 94 95 95 96 100 104 106 109 114 119 123 128 136 145 152 156 160 165 171 174 177 180 183 185 186 186 189 194 201 206 210 213 214 215 217 220 224 228 233 238 243 248 255 261 266 271 276 281
130 123 115 109 106 102 102 110 116 113 109 108 108 107 106 104 99 97 97 94 90 87 84 81 78 75 73 72 72 72 75 78 80 82 84 84 83 82 84 88 92 92 93 97 101 103 104 107 110 113 117 124 131 140 149 157 165 170 175 180 186 190 194 197 199 201 206 211 216 220 221 221 223 225 228 232 236 240 245 250 254 259 265 270 274 278 283
158 147 136 124 115 112 113 118 122 120 116 112 109 106 105 104 101 98 97 95 93 91 89 84 78 74 74 75 77 78 78 77 77 78 80 81 81 80 79 81 84 85 85 89 94 97 98 98 99 101 107 114 121 129 138 147 157 166 174 183 191 196 203 207 210 213 218 222 224 227 229 231 233 234 236 239 243 246 251 255 259 264 268 272 276 280 283
181 173 165 158 149 139 133 129 128 126 123 119 115 110 107 107 105 102 98 97 95 94 91 87 81 77 76 79 82 84 83 79 76 76 77 78 80 79 78 78 80 80 79 80 85 89 91 90 87 88 95 110 132 153 166 178 188 193 198 204 208 212 217 219 221 225 231 234 235 236 238 238 239 241 243 245 248 252 255 259 263 268 271 275 277 281 283
197 192 187 185 182 171 156 149 146 144 139 134 130 126 122 118 115 111 105 102 102 101 96 90 84 80 80 81 80 79 79 79 78 76 74 73 74 74 72 71 72 72 70 70 70 68 64 60 51 39 28 0 253 233 234 239 240 237 236 236 235 235 237 238 240 243 244 244 245 245 245 245 246 248 250 252 255 257 260 264 267 270 273 275 277 279 282
206 204 202 202 202 195 184 178 175 168 160 153 148 145 141 137 133 126 118 112 109 106 98 91 86 81 78 76 74 71 69 71 73 72 68 65 65 63 59 55 55 55 54 52 46 37 25 12 357 341 325 305 286 271 264 261 259 256 256 258 258 257 256 256 256 257 256 255 255 255 254 255 256 256 257 259 260 262 265 268 270 271 273 274 275 278 282
213 213 212 212 214 212 207 204 199 189 180 176 173 166 162 163 161 154 144 132 120 109 99 92 87 79 71 67 67 65 61 59 58 56 51 45 41 38 32 27 24 24 23 20 13 4 353 344 335 325 313 300 288 280 274 271 268 265 264 265 266 266 266 265 264 264 263 262 262 262 262 262 263 263 264 264 265 266 268 269 270 271 272 273 275 278 281
217 218 217 217 219 219 216 214 211 204 199 198 195 189 190 197 197 190 191 199 196 174 132 95 84 74 55 44 40 37 35 34 31 26 20 14 9 4 358 353 349 346 342 338 333 328 323 319 315 310 303 295 288 282 277 274 273 271 270 270 269 269 269 269 268 267 267 267 267 267 266 266 266 267 267 267 267 268 269 269 270 270 271 271 273 276 278
219 221 221 221 222 222 221 222 222 218 213 211 209 208 211 216 215 212 219 230 237 241 249 259 269 279 288 299 310 317 322 329 333 334 334 335 333 332 330 328 327 324 322 318 315 311 309 307 305 302 297 292 288 285 281 277 274 273 272 272 271 270 270 270 268 268 268 268 268 267 266 267 267 267 267 267 267 268 268 268 269 269 269 269 270 272 274
220 222 223 224 225 225 226 228 229 227 222 220 219 220 223 225 224 223 228 237 243 245 247 251 258 268 274 278 283 291 298 304 307 308 309 310 313 315 316 316 316 315 314 312 309 306 303 301 299 297 294 290 287 285 282 279 277 275 273 272 272 271 271 270 269 268 267 267 266 265 265 266 266 266 266 267 267 267 267 267 268 267 267 267 268 269 270